TimeMST,TemperatureF,Dew PointF,Humidity,Sea Level PressureIn,VisibilityMPH,Wind Direction,Wind SpeedMPH,Gust SpeedMPH,PrecipitationIn,Events,Conditions,WindDirDegrees,DateUTC
12:53 AM,21.0,19.0,92,30.28,10.0,Calm,Calm,-,N/A,,Partly Cloudy,0,2012-11-14 07:53:00
1:53 AM,19.9,18.0,92,30.27,10.0,ENE,4.6,-,N/A,,Clear,70,2012-11-14 08:53:00
2:53 AM,18.0,15.1,88,30.27,10.0,ENE,4.6,-,N/A,,Mostly Cloudy,70,2012-11-14 09:53:00
3:53 AM,19.0,16.0,88,30.27,10.0,NE,4.6,-,N/A,,Mostly Cloudy,50,2012-11-14 10:53:00
4:53 AM,19.9,17.1,89,30.28,10.0,North,3.5,-,N/A,,Overcast,350,2012-11-14 11:53:00
5:53 AM,21.0,18.0,88,30.28,10.0,East,3.5,-,N/A,,Mostly Cloudy,80,2012-11-14 12:53:00
6:53 AM,21.0,18.0,88,30.30,10.0,Calm,Calm,-,N/A,,Overcast,0,2012-11-14 13:53:00
7:53 AM,21.0,18.0,88,30.31,10.0,Calm,Calm,-,N/A,,Mostly Cloudy,0,2012-11-14 14:53:00
8:53 AM,25.0,21.0,85,30.32,10.0,Calm,Calm,-,N/A,,Overcast,0,2012-11-14 15:53:00
9:53 AM,28.0,23.0,81,30.27,10.0,SE,3.5,-,N/A,,Overcast,130,2012-11-14 16:53:00
10:53 AM,30.9,24.1,76,30.26,10.0,SE,3.5,-,N/A,,Overcast,130,2012-11-14 17:53:00
11:53 AM,34.0,25.0,70,30.22,10.0,SE,6.9,-,N/A,,Overcast,130,2012-11-14 18:53:00
12:53 PM,35.1,26.1,70,30.21,7.0,Calm,Calm,-,0.00,,Overcast,0,2012-11-14 19:53:00
1:24 PM,35.6,26.6,70,30.17,2.5,Calm,Calm,-,0.00,Snow,Light Snow,0,2012-11-14 20:24:00
1:31 PM,35.6,28.4,75,30.18,4.0,ENE,3.5,-,0.00,Snow,Light Snow,60,2012-11-14 20:31:00
1:46 PM,35.6,28.4,75,30.18,1.8,East,5.8,-,0.00,Snow,Light Snow,90,2012-11-14 20:46:00
1:53 PM,34.0,28.9,82,30.22,1.2,ENE,4.6,-,0.00,Snow,Light Snow,70,2012-11-14 20:53:00
2:21 PM,33.8,30.2,87,30.17,2.0,ENE,5.8,-,N/A,Snow,Light Snow,60,2012-11-14 21:21:00
2:38 PM,35.6,30.2,81,30.17,4.0,East,4.6,-,0.00,Snow,Light Snow,80,2012-11-14 21:38:00
2:53 PM,35.1,30.0,82,30.22,8.0,East,4.6,-,0.00,Snow,Light Snow,80,2012-11-14 21:53:00
3:53 PM,34.0,30.0,85,30.24,7.0,ENE,3.5,-,0.00,Snow,Light Snow,70,2012-11-14 22:53:00
4:53 PM,32.0,28.9,88,30.25,10.0,Calm,Calm,-,0.00,,Overcast,0,2012-11-14 23:53:00
5:53 PM,30.0,28.0,92,30.26,10.0,ENE,4.6,-,N/A,,Scattered Clouds,70,2012-11-15 00:53:00
6:53 PM,30.0,28.0,92,30.29,10.0,ENE,5.8,-,N/A,,Scattered Clouds,60,2012-11-15 01:53:00
7:53 PM,24.1,21.9,91,30.33,9.0,North,4.6,-,N/A,,Clear,10,2012-11-15 02:53:00
8:43 PM,23.0,21.2,93,30.25,1.8,NNE,3.5,-,N/A,,Clear,20,2012-11-15 03:43:00
8:53 PM,23.0,21.0,92,30.34,0.8,ENE,4.6,-,N/A,,Mist,70,2012-11-15 03:53:00
8:59 PM,23.0,21.2,93,30.26,1.2,Calm,Calm,-,N/A,,Partly Cloudy,0,2012-11-15 03:59:00
9:02 PM,23.0,21.2,93,30.27,4.0,Calm,Calm,-,N/A,,Partly Cloudy,0,2012-11-15 04:02:00
9:53 PM,21.0,18.0,88,30.34,10.0,WNW,5.8,-,N/A,,Clear,300,2012-11-15 04:53:00
10:53 PM,19.0,15.1,85,30.34,10.0,West,5.8,-,N/A,,Clear,280,2012-11-15 05:53:00
11:53 PM,19.0,16.0,88,30.33,10.0,Calm,Calm,-,N/A,,Clear,0,2012-11-15 06:53:00